Aurora, NE

9:40 AM CST on January 20, 2018 (GMT -0600)
Aurora Municipal

Weather History for KAUH - September, 2012

Change the Weather History Date:

Thursday, September 20, 2012

  Actual Average Record
Temperature  
Mean Temperature 59 °F -  
Max Temperature 76 °F 76 °F 96 °F (1980)
Min Temperature 43 °F 49 °F 31 °F (1991)
Degree Days  
Heating Degree Days 6    
Growing Degree Days 9 (Base 50)    
Moisture  
Dew Point 36 °F    
Average Humidity 48    
Maximum Humidity 80    
Minimum Humidity 19    
Precipitation  
Precipitation 0.00 in - - ()
Sea Level Pressure  
Sea Level Pressure 30.03 in    
Wind  
Wind Speed 4 mph (SW)    
Max Wind Speed 7 mph    
Max Gust Speed -    
Visibility 10 miles    
Events      
Averages and records for this station are not official NWS values.
T = Trace of Precipitation, MM = Missing Value Source: NWS Daily Summary

Daily Weather History Graph

Daily Weather History Graph

Search for Another Location

Airport or City:

Trip Planner

Search our weather history database for the weather conditions in past years. The results will help you decide how hot, cold, wet, or windy it might be!

Date:

Astronomy

Sep. 20, 2012 Rise Set
Actual Time 7:18 AM CDT 7:31 PM CDT
Civil Twilight 6:50 AM CDT 7:59 PM CDT
Nautical Twilight 6:18 AM CDT 8:31 PM CDT
Astronomical Twilight 5:45 AM CDT 9:03 PM CDT
Moon 12:40 PM CDT 10:32 PM CDT
Length of Visible Light 13h 08m
Length of Day
12h 13m
Waxing Crescent, 27% of the Moon is Illuminated
Sep 20
Waxing Crescent
Sep 22
First Quarter
Sep 29
Full
Oct 8
Last Quarter
Oct 15
New

Hourly Weather History & Observations

Time (CDT) Temp. Windchill Dew Point Humidity Pressure Visibility Wind Dir Wind Speed Gust Speed Precip Events Conditions
12:15 AM 49.3 °F - 37.6 °F 64% 30.05 in 10.0 mi NNW 3.5 mph - N/A   Clear
12:35 AM 49.3 °F - 36.5 °F 61% 30.05 in 10.0 mi Calm Calm - N/A   Clear
12:55 AM 49.6 °F - 36.5 °F 61% 30.05 in 10.0 mi Calm Calm - N/A   Clear
1:15 AM 47.7 °F - 37.2 °F 67% 30.05 in 10.0 mi NW 5.8 mph - N/A   Clear
1:35 AM 45.0 °F 42.6 °F 39.0 °F 80% 30.05 in 10.0 mi West 4.6 mph - N/A   Clear
1:55 AM 45.3 °F 43.0 °F 37.8 °F 75% 30.06 in 10.0 mi West 4.6 mph - N/A   Clear
2:15 AM 45.1 °F 42.8 °F 37.9 °F 76% 30.06 in 10.0 mi WNW 4.6 mph - N/A   Clear
2:35 AM 44.8 °F 42.4 °F 37.6 °F 76% 30.06 in 10.0 mi NW 4.6 mph - N/A   Clear
2:55 AM 44.4 °F 41.2 °F 37.6 °F 77% 30.06 in 10.0 mi NW 5.8 mph - N/A   Clear
3:15 AM 43.9 °F 40.5 °F 37.4 °F 78% 30.06 in 10.0 mi WNW 5.8 mph - N/A   Clear
3:35 AM 44.1 °F 41.5 °F 37.4 °F 77% 30.06 in 10.0 mi WNW 4.6 mph - N/A   Clear
3:55 AM 43.7 °F 41.1 °F 37.6 °F 79% 30.06 in 10.0 mi WNW 4.6 mph - N/A   Clear
4:15 AM 44.6 °F 40.7 °F 36.9 °F 74% 30.06 in 10.0 mi WNW 6.9 mph - N/A   Clear
4:35 AM 44.2 °F 40.3 °F 36.9 °F 75% 30.06 in 10.0 mi WNW 6.9 mph - N/A   Clear
5:15 AM 44.2 °F 41.0 °F 36.5 °F 74% 30.06 in 10.0 mi West 5.8 mph - N/A   Clear
5:35 AM 44.1 °F 40.8 °F 36.1 °F 74% 30.06 in 10.0 mi WNW 5.8 mph - N/A   Clear
5:55 AM 43.2 °F 40.5 °F 36.5 °F 77% 30.06 in 10.0 mi WNW 4.6 mph - N/A   Clear
6:15 AM 43.7 °F 39.7 °F 36.5 °F 76% 30.06 in 10.0 mi NW 6.9 mph - N/A   Clear
6:35 AM 44.4 °F 40.5 °F 36.5 °F 74% 30.06 in 10.0 mi NNW 6.9 mph - N/A   Clear
6:55 AM 44.8 °F 41.6 °F 36.7 °F 73% 30.06 in 10.0 mi WNW 5.8 mph - N/A   Clear
7:15 AM 45.1 °F 42.0 °F 37.0 °F 73% 30.07 in 10.0 mi NW 5.8 mph - N/A   Clear
7:35 AM 45.0 °F 42.6 °F 37.4 °F 75% 30.08 in 10.0 mi WNW 4.6 mph - N/A   Clear
7:55 AM 45.1 °F 43.7 °F 38.1 °F 76% 30.08 in 10.0 mi NW 3.5 mph - N/A   Clear
8:15 AM 45.7 °F 44.4 °F 39.6 °F 79% 30.09 in 10.0 mi WNW 3.5 mph - N/A   Clear
8:35 AM 47.3 °F - 40.1 °F 76% 30.09 in 10.0 mi WNW 3.5 mph - N/A   Clear
8:55 AM 49.3 °F - 41.0 °F 73% 30.10 in 10.0 mi Calm Calm - N/A   Clear
9:15 AM 51.1 °F - 41.0 °F 68% 30.10 in 10.0 mi Calm Calm - N/A   Clear
9:35 AM 52.9 °F - 41.9 °F 66% 30.10 in 10.0 mi Calm Calm - N/A   Clear
9:55 AM 55.4 °F - 42.4 °F 62% 30.10 in 10.0 mi Calm Calm - N/A   Clear
10:15 AM 58.3 °F - 41.2 °F 53% 30.10 in 10.0 mi Calm Calm - N/A   Clear
10:55 AM 63.9 °F - 36.5 °F 36% 30.10 in 10.0 mi NW 3.5 mph - N/A   Clear
11:15 AM 66.2 °F - 33.3 °F 29% 30.10 in 10.0 mi NNW 3.5 mph - N/A   Clear
11:35 AM 66.6 °F - 32.9 °F 29% 30.11 in 10.0 mi Calm Calm - N/A   Clear
11:55 AM 67.3 °F - 32.2 °F 27% 30.10 in 10.0 mi Calm Calm - N/A   Clear
12:15 PM 67.8 °F - 32.0 °F 26% 30.10 in 10.0 mi Calm Calm - N/A   Clear
12:35 PM 69.1 °F - 31.8 °F 25% 30.09 in 10.0 mi Calm Calm - N/A   Clear
12:55 PM 69.8 °F - 31.8 °F 25% 30.08 in 10.0 mi WSW 3.5 mph - N/A   Clear
1:15 PM 70.5 °F - 31.5 °F 24% 30.08 in 10.0 mi Calm Calm - N/A   Clear
1:35 PM 70.7 °F - 31.3 °F 23% 30.07 in 10.0 mi WSW 4.6 mph - N/A   Clear
1:55 PM 71.2 °F - 30.9 °F 23% 30.05 in 10.0 mi Calm Calm - N/A   Clear
2:15 PM 71.8 °F - 31.5 °F 23% 30.04 in 10.0 mi Calm Calm - N/A   Clear
2:35 PM 72.3 °F - 31.8 °F 22% 30.03 in 10.0 mi SSW 3.5 mph - N/A   Clear
2:55 PM 72.7 °F - 31.3 °F 22% 30.02 in 10.0 mi Calm Calm - N/A   Clear
3:15 PM 73.4 °F - 29.8 °F 20% 30.02 in 10.0 mi South 3.5 mph - N/A   Clear
3:35 PM 72.7 °F - 30.6 °F 21% 30.01 in 10.0 mi South 3.5 mph - N/A   Clear
3:55 PM 73.4 °F - 31.1 °F 21% 30.01 in 10.0 mi Calm Calm - N/A   Clear
4:15 PM 74.5 °F - 31.3 °F 20% 30.00 in 10.0 mi East 4.6 mph - N/A   Clear
4:35 PM 74.5 °F - 31.1 °F 20% 29.99 in 10.0 mi SE 3.5 mph - N/A   Clear
4:55 PM 75.0 °F - 31.3 °F 20% 29.98 in 10.0 mi SSE 5.8 mph - N/A   Clear
5:15 PM 75.4 °F - 31.8 °F 20% 29.97 in 10.0 mi South 6.9 mph - N/A   Clear
5:35 PM 75.7 °F - 30.7 °F 19% 29.97 in 10.0 mi SW 5.8 mph - N/A   Clear
5:55 PM 75.6 °F - 30.9 °F 19% 29.97 in 10.0 mi South 4.6 mph - N/A   Clear
6:15 PM 74.5 °F - 31.6 °F 21% 29.96 in 10.0 mi South 6.9 mph - N/A   Clear
6:35 PM 73.9 °F - 32.0 °F 21% 29.96 in 10.0 mi South 6.9 mph - N/A   Clear
6:55 PM 72.3 °F - 34.0 °F 25% 29.95 in 10.0 mi SSE 4.6 mph - N/A   Clear
7:15 PM 70.0 °F - 33.8 °F 26% 29.96 in 10.0 mi SSE 4.6 mph - N/A   Clear
7:35 PM 67.5 °F - 35.2 °F 30% 29.95 in 10.0 mi SE 4.6 mph - N/A   Clear
7:55 PM 66.4 °F - 35.6 °F 32% 29.95 in 10.0 mi SSE 5.8 mph - N/A   Clear
8:15 PM 66.2 °F - 35.6 °F 32% 29.95 in 10.0 mi SSE 6.9 mph - N/A   Clear
8:35 PM 67.3 °F - 35.2 °F 31% 29.95 in 10.0 mi SSE 6.9 mph - N/A   Clear
8:55 PM 66.7 °F - 35.1 °F 31% 29.95 in 10.0 mi South 6.9 mph - N/A   Clear
9:15 PM 64.6 °F - 36.3 °F 35% 29.95 in 10.0 mi SE 4.6 mph - N/A   Clear
9:35 PM 60.1 °F - 39.4 °F 46% 29.96 in 10.0 mi SE 4.6 mph - N/A   Clear
9:55 PM 61.7 °F - 38.3 °F 42% 29.95 in 10.0 mi South 5.8 mph - N/A   Clear
10:15 PM 60.1 °F - 38.8 °F 45% 29.95 in 10.0 mi SSE 3.5 mph - N/A   Clear
10:35 PM 57.2 °F - 40.3 °F 53% 29.95 in 10.0 mi SE 3.5 mph - N/A   Clear
10:55 PM 55.8 °F - 40.5 °F 56% 29.95 in 10.0 mi SE 3.5 mph - N/A   Clear
11:15 PM 58.1 °F - 39.6 °F 50% 29.95 in 10.0 mi SSE 6.9 mph - N/A   Clear
11:35 PM 58.1 °F - 39.9 °F 51% 29.95 in 10.0 mi SE 3.5 mph - N/A   Clear
11:55 PM 55.9 °F - 40.5 °F 56% 29.94 in 10.0 mi Calm Calm - N/A   Clear